Regional Weather Roundup
Issued by NWS

Home | Current Version | Previous Version | Graphics & Text | Print | Product List | Glossary Off
Versions: 1 2 3 4 5 6 7 8 9 10 11 12 13 14 15 16 17 18 19 20 21 22 23 24 25 26 27 28 29 30 31 32 33 34 35 36 37 38 39 40 41 42 43 44 45 46 47 48 49 50

000
ASUS43 KTOP 290659
RWRKS

WEATHER ROUNDUP FOR KANSAS
NATIONAL WEATHER SERVICE GOODLAND KS
200 AM CDT FRI JUL 29 2016

NOTE:  "FAIR" INDICATES FEW OR NO CLOUDS BELOW 12,000 FEET WITH NO
SIGNIFICANT WEATHER AND/OR OBSTRUCTIONS TO VISIBILITY.

KSZ001>006-013>018-027>032-041>047-290800-
NORTHWEST KANSAS

CITY           SKY/WX    TMP DP  RH WIND       PRES   REMARKS
GOODLAND       CLOUDY    64  61  90 CALM      30.17S
HAYS           CLOUDY    66  57  72 W5        30.07S
HILL CITY      MOCLDY    68  66  93 CALM      30.10S
RUSSELL        CLOUDY    66  65  96 S5        30.05S
$$

KSZ061>065-074>080-084>089-290800-
SOUTHWEST KANSAS

CITY           SKY/WX    TMP DP  RH WIND       PRES   REMARKS
DODGE CITY     LGT RAIN  68  65  90 NE12      30.06F
ELKHART          N/A     66  59  78 N21         N/A
GARDEN CITY    TSTM      68  64  87 S9        30.07F
GREAT BEND     CLOUDY    68  59  73 NW10      30.08R THUNDER
LIBERAL        CLOUDY    73  61  64 NW22G48   30.14R
$$

KSZ066>073-081>083-090>101-290800-
SOUTHEAST KANSAS

CITY           SKY/WX    TMP DP  RH WIND       PRES   REMARKS
CHANUTE        CLOUDY    71  68  90 CALM      29.98F
COFFEYVILLE    CLOUDY    71  68  90 N5        29.96S
HUTCHINSON     CLOUDY    69  67  93 N6        30.01F
NEWTON         PTCLDY    68  67  96 N5        30.02F
PARSONS        MOCLDY    72  68  87 CALM      29.99F
WICHITA INTL   CLOUDY    73  69  87 N6        29.99F
WICHITA JABRA  CLEAR     69  69 100 NE3       29.99F
WINFIELD       CLEAR     72  64  76 E3        29.98F
$$

KSZ007>012-019>026-033>040-048>060-102>105-290800-
NORTHEAST KANSAS

CITY           SKY/WX    TMP DP  RH WIND       PRES   REMARKS
CONCORDIA      CLEAR     67  65  93 NW5       30.03F
EMPORIA        CLOUDY    68  66  93 N3        30.00F
LAWRENCE       CLOUDY    68  67  96 NW8       29.99F
MANHATTAN      PTCLDY    68  66  93 CALM      30.00F
OLATHE IND     CLOUDY    69  69 100 W7        30.00S
OLATHE EXE     CLOUDY    70  68  93 NW6       30.00R
SALINA         CLOUDY    70  67  90 N5        30.02S
TOPEKA BILLARD CLOUDY    67  66  97 NW3       29.99F
TOPEKA FORBES  CLOUDY    69  66  90 W3        29.99F
$$




USA.gov is the U.S. government's official web portal to all federal, state and local government web resources and services.